Location: Casilda
(33.0440°S, 61.1680°W)
Time: 18:20:01
(UTC-03:00)

ISS - Pass Details

Date: 27 November 2020
Orbit: 418 x 420 km, 51.6° (Epoch: 04 December)

Event Time Altitude Azimuth Distance (km) Brightness Sun altitude
Exits shadow 03:14:54 16° 86° (E) 1,219 -1.1 -26.0°
Drops below altitude 10° 03:15:59 10° 102° (ESE) 1,519 -0.3 -25.8°
Sets 03:18:27 0° 118° (ESE) 2,393 1.1 -25.5°
